RH
54 48 42 39 38 38 36 32 32 32 28 26 24 21 20 21 21 20 19 40 80 80 70 47 26 12 6 5 7 7 7 7 7 8 23 38 66 36 15 15 15 16 19
59 52 47 45 42 40 39 36 33 34 33 32 29 23 19 26 65 48 32 71 80 85 66 51 16 7 5 6 8 7 6 6 6 7 10 12 20 16 15 76 84 69 27
63 56 52 50 47 44 43 40 37 35 37 38 37 29 27 23 23 35 60 51 66 44 62 60 15 5 5 6 8 7 6 6 6 6 7 9 9 10 23 85 77 90 78
72 80 67 55 53 50 47 45 42 39 38 40 42 34 28 35 26 27 24 21 81 91 76 75 17 5 5 6 8 6 5 5 5 6 8 7 8 7 9 17 48 89 85
76 73 73 72 71 67 53 49 47 44 41 40 42 38 42 42 31 25 26 24 94 90 86 19 7 5 4 5 8 6 5 5 4 5 7 6 6 5 6 6 9 19 33
55 58 60 62 80 82 64 54 50 48 46 44 41 40 46 45 47 43 43 17 58 85 85 50 10 5 4 5 8 6 5 5 5 5 7 6 5 5 5 5 5 6 11
25 31 52 65 61 72 69 63 52 51 50 48 46 41 43 44 54 74 67 26 16 25 24 11 6 4 4 4 7 8 6 6 5 5 5 5 4 4 4 5 5 5 6
16 16 20 28 49 62 68 70 61 54 53 51 49 52 47 41 47 71 66 30 17 17 10 5 4 4 4 5 6 9 6 6 6 6 4 4 4 4 4 4 5 6 6
8 9 12 13 16 27 64 74 73 65 58 56 54 60 63 56 45 55 77 36 18 17 15 7 5 4 5 5 5 9 7 7 7 6 5 4 5 15 6 6 5 6 6
4 4 4 6 10 14 28 67 78 79 72 63 59 63 66 67 55 52 82 56 21 18 16 13 6 4 5 5 6 9 7 7 7 7 5 5 27 94 14 7 6 6 6
7 6 4 4 4 6 11 24 53 74 78 76 69 62 71 71 71 65 68 82 42 20 17 16 10 5 5 5 6 10 8 7 7 7 6 13 96 62 15 8 7 7 6
10 9 8 7 5 4 4 9 16 33 64 81 87 75 71 72 72 75 64 84 89 58 22 16 15 8 6 6 6 9 9 8 8 7 6 43 98 73 18 8 7 6 6
10 11 11 10 9 8 6 4 5 10 22 43 68 77 77 76 77 78 78 68 89 100 77 32 17 13 6 7 7 9 10 9 8 7 12 78 81 60 21 8 5 5 4
7 8 9 10 11 11 10 9 6 5 5 14 36 69 93 93 88 89 86 82 90 96 100 80 34 17 10 7 8 10 11 9 9 8 19 85 95 99 41 10 6 6 6
6 6 7 7 8 10 10 10 10 9 6 6 11 39 76 88 95 98 99 96 88 94 100 99 72 30 15 8 8 12 13 10 10 9 78 82 54 82 86 14 7 6 6
7 7 8 8 8 9 10 11 11 11 11 9 7 9 36 84 93 91 96 94 99 99 98 99 89 61 20 10 8 12 14 12 11 10 42 96 100 88 58 16 8 6 6
10 10 11 11 11 12 13 13 14 15 14 13 12 9 8 20 72 85 98 100 99 89 99 98 99 81 37 13 9 10 15 14 13 13 20 97 97 98 68 14 8 6 6
14 16 16 18 17 16 17 17 18 18 18 19 18 15 11 9 9 44 90 85 90 100 98 97 98 87 47 17 12 11 15 16 15 15 26 92 99 100 88 37 7 7 6
24 25 25 26 27 26 24 23 23 23 21 20 20 20 18 14 11 9 13 22 50 93 100 99 97 100 62 21 14 12 16 17 17 57 26 28 76 84 60 14 13 8 7
34 35 35 35 36 36 35 33 31 31 33 30 28 26 25 21 17 14 13 10 12 31 99 98 100 100 98 50 20 14 16 18 19 18 19 16 26 58 22 14 10 8 7
35 34 34 34 35 34 34 36 36 35 35 38 37 34 32 27 22 19 17 16 14 11 45 85 97 100 98 98 97 49 18 23 21 20 18 16 14 12 10 10 8 8 7
33 34 34 34 34 38 41 44 44 39 36 36 40 43 38 34 31 26 22 18 17 13 19 87 98 89 100 100 97 48 24 24 24 21 20 18 16 13 11 8 8 8 7
30 30 30 30 38 43 42 33 30 45 49 42 39 40 44 41 38 36 30 23 20 15 13 26 80 99 99 100 96 98 84 53 26 24 21 20 16 13 10 8 8 8 8
32 32 29 32 40 44 31 22 19 24 36 46 48 52 47 47 43 39 34 31 23 19 16 50 92 96 100 99 100 95 99 84 32 26 23 22 19 14 10 9 8 8 9
33 33 33 29 35 42 29 32 39 28 23 26 45 58 60 53 50 42 39 35 31 20 40 92 79 98 98 99 100 99 89 49 33 33 25 24 19 14 11 9 9 10 12
27 29 32 31 42 34 27 28 44 46 36 30 45 58 66 61 58 45 42 38 38 30 32 74 99 90 100 100 93 92 85 79 72 58 31 21 16 13 10 10 10 12 16
Wind_Speed
10 9 8 7 7 7 6 5 6 5 5 4 3 2 2 3 3 3 3 2 2 2 3 4 5 4 2 1 1 2 2 1 2 3 4 7 8 6 8 7 7 7 8
11 12 10 9 8 8 7 7 6 6 5 4 3 2 2 2 2 3 2 3 3 4 5 4 4 2 1 1 1 1 1 2 2 3 5 7 8 8 10 11 10 6 7
11 11 11 10 10 9 9 8 7 7 6 5 4 3 3 3 4 4 3 4 6 8 8 6 4 2 1 1 1 1 1 3 4 4 5 7 8 9 11 11 12 8 6
10 11 11 12 10 10 10 10 9 8 7 7 6 5 4 4 4 4 6 5 3 4 8 7 4 2 2 2 2 1 1 3 4 4 5 6 7 8 8 10 11 11 12
6 7 9 11 10 11 12 13 12 11 10 9 8 7 5 5 5 6 8 7 7 8 11 6 5 4 4 3 3 2 2 2 3 4 4 4 5 6 7 9 10 10 9
8 9 11 10 12 14 14 16 16 15 13 12 10 8 7 7 7 6 4 8 12 14 14 13 10 7 7 5 4 4 3 3 3 4 4 5 6 7 8 8 9 9 10
14 14 13 12 14 16 16 17 19 18 17 15 13 11 10 9 8 8 10 9 11 15 17 15 12 9 8 8 5 5 5 5 4 4 5 6 7 7 7 8 7 7 8
19 19 19 19 18 18 18 19 20 20 20 19 16 14 13 12 12 12 13 12 12 13 13 12 12 11 10 9 7 6 6 6 6 5 5 6 6 7 7 6 7 9 10
22 23 24 25 24 24 22 21 21 22 22 22 20 18 16 16 15 15 17 16 15 14 14 12 12 12 12 11 9 8 8 8 7 7 6 6 6 7 7 7 9 10 10
18 20 21 25 27 28 28 26 24 22 24 25 24 23 21 21 20 18 21 18 17 16 15 13 13 12 12 13 11 10 10 10 9 8 7 6 4 10 9 9 9 9 9
20 20 21 22 24 28 30 31 30 29 28 25 27 27 26 25 24 23 23 21 18 17 17 15 14 13 14 13 13 12 12 12 11 9 8 7 16 10 8 8 9 9 8
21 23 23 23 24 25 28 32 33 34 32 30 27 29 30 29 27 27 25 25 23 19 17 17 15 15 15 15 14 14 15 14 13 12 11 11 17 14 9 7 7 7 7
23 23 26 27 26 27 28 29 31 35 35 35 35 32 32 32 32 32 30 28 27 24 20 18 17 17 16 16 15 16 16 16 15 13 13 13 15 16 10 8 7 7 7
25 26 28 31 31 31 31 32 33 33 35 39 38 36 35 32 34 34 34 31 30 27 26 21 20 18 18 18 17 17 18 18 17 16 16 16 19 22 15 10 8 9 8
18 20 23 29 34 35 35 34 34 35 37 36 40 42 40 39 35 34 36 36 34 32 29 27 24 21 20 19 18 18 20 20 19 17 14 19 13 14 16 12 11 11 9
18 18 18 19 24 29 35 36 35 36 37 41 40 41 44 43 42 39 43 42 47 40 38 32 27 23 22 21 21 20 21 21 21 20 19 20 28 22 21 13 13 13 11
15 16 17 18 19 21 24 28 32 34 35 39 43 43 41 46 45 45 48 35 43 51 39 42 31 29 25 24 23 23 22 23 23 22 23 32 32 32 27 15 16 15 13
17 16 16 16 16 17 20 23 25 28 31 32 36 39 45 44 46 48 50 48 44 37 41 30 38 29 26 25 24 24 24 24 25 25 24 23 25 28 27 22 19 16 15
17 18 19 18 18 19 20 20 22 25 28 30 32 33 36 43 45 44 48 49 48 34 35 44 44 31 28 26 26 26 26 26 26 23 27 31 24 25 27 22 21 19 18
16 18 19 20 22 24 26 27 27 27 26 27 30 31 32 35 39 44 44 42 42 40 25 26 43 31 28 28 27 26 27 28 28 29 28 29 31 33 29 24 24 22 20
22 25 27 29 32 33 32 33 35 36 34 32 30 30 32 33 34 38 41 41 36 38 45 36 30 39 29 38 35 33 31 31 31 29 29 28 28 28 27 25 24 22 21
27 31 34 36 36 37 42 45 45 44 43 41 38 34 32 30 32 34 37 37 38 34 37 42 33 34 37 34 37 32 35 33 33 31 30 29 28 28 27 26 24 23 22
34 37 36 33 36 43 45 44 44 49 53 50 46 40 35 31 29 30 33 35 35 34 36 36 40 33 35 31 32 37 43 39 34 33 30 29 28 27 26 25 24 23 22
39 39 37 38 40 41 36 39 40 40 40 46 55 49 41 34 32 29 30 32 33 34 34 33 31 34 30 32 28 29 42 37 34 32 30 28 27 26 26 24 23 23 22
40 41 40 42 42 37 32 37 42 44 43 39 42 50 46 38 35 31 27 29 31 34 34 36 32 30 31 19 21 19 19 38 32 28 30 27 26 25 23 22 22 22 21
45 44 42 40 41 33 33 36 37 39 40 41 36 48 50 43 36 31 26 25 28 31 32 28 27 27 24 23 25 24 24 24 28 32 31 27 28 26 25 24 23 21 20
Wind_Direction
206 211 211 208 207 206 198 197 192 190 185 174 177 216 236 243 237 231 223 208 192 189 223 214 204 211 235 220 12 4 23 40 102 121 127 146 135 128 127 123 127 136 141
210 211 216 216 213 216 216 211 209 204 209 202 205 225 237 223 226 238 221 177 243 257 277 272 215 209 239 324 356 23 72 106 109 127 131 133 153 144 140 118 115 119 143
210 212 224 227 218 216 223 226 223 218 222 229 231 258 254 227 243 254 242 190 230 276 267 226 189 212 195 281 320 344 122 126 125 138 155 154 158 158 151 122 136 138 136
219 227 232 233 232 230 225 228 231 232 225 236 243 250 247 236 251 253 252 236 192 208 242 197 242 232 233 285 301 285 163 150 128 116 152 167 164 165 165 165 154 142 142
227 236 244 240 243 246 238 232 232 233 230 231 241 249 247 238 266 262 248 209 191 210 233 229 245 259 257 260 285 254 214 170 130 127 134 161 176 172 176 182 185 187 186
240 245 248 249 242 246 243 233 229 231 232 232 236 243 244 255 269 253 230 207 203 220 237 246 265 264 266 257 263 270 228 211 166 152 174 190 195 191 191 195 195 193 192
257 254 248 245 246 248 248 241 233 232 233 233 234 235 240 255 263 234 236 245 234 235 249 265 263 256 257 260 254 254 234 214 202 192 207 215 211 205 203 208 200 195 197
259 257 256 251 248 248 252 247 241 238 237 236 235 236 239 246 253 245 241 245 254 254 258 260 264 257 249 254 254 245 235 224 211 214 224 224 214 213 210 203 197 192 195
260 257 253 250 248 246 245 245 245 242 240 240 237 236 239 244 242 249 240 253 253 254 254 256 257 258 254 246 249 251 232 226 224 222 226 223 230 224 212 184 191 190 194
262 259 257 253 249 245 242 241 241 244 242 239 240 237 237 240 241 243 237 249 254 255 253 249 250 248 252 254 243 237 239 224 225 227 227 213 191 166 148 149 165 177 189
270 267 263 258 254 248 244 243 241 242 244 242 239 240 238 238 241 242 241 243 246 250 254 251 247 244 242 246 249 236 229 226 224 222 220 191 160 176 165 168 172 175 186
276 274 267 261 256 254 248 245 244 242 243 242 243 239 243 243 241 242 241 243 243 246 248 251 247 243 240 239 239 237 228 221 225 218 207 182 203 207 201 188 187 188 193
278 274 272 267 259 256 255 250 247 245 242 243 240 242 239 241 242 243 241 240 244 247 249 251 248 246 241 238 236 232 229 222 218 222 205 181 205 216 212 216 213 209 205
285 277 270 266 265 260 254 254 253 249 246 242 240 239 235 246 241 242 243 243 243 242 247 248 249 249 243 238 235 230 224 224 220 212 208 183 201 227 231 232 227 227 219
297 292 284 276 269 264 261 257 254 253 252 248 243 239 239 234 237 242 247 242 238 242 242 241 241 242 242 239 235 231 226 219 220 216 196 205 234 229 241 229 240 235 233
307 305 303 297 286 275 268 263 258 254 253 251 249 244 239 239 237 235 242 241 251 231 235 234 234 233 238 234 233 230 228 225 219 215 211 200 212 234 240 230 241 243 244
310 308 306 304 300 289 279 273 269 262 256 253 251 250 246 242 241 238 248 251 254 236 252 220 226 228 228 232 231 229 225 224 222 217 209 200 216 223 234 245 244 242 246
320 319 315 310 305 299 288 281 275 269 264 259 256 253 250 247 245 243 243 250 254 235 239 228 230 220 225 226 227 227 228 225 225 222 220 218 211 225 239 244 246 251 251
320 318 315 312 307 301 294 286 280 275 272 267 260 256 254 251 248 247 247 250 249 258 251 248 231 241 220 229 227 226 227 225 225 222 221 225 232 235 241 242 251 254 253
311 307 303 302 299 294 288 283 280 278 275 273 269 261 252 252 249 248 247 249 251 247 254 251 241 235 242 223 233 230 228 229 226 229 231 233 232 232 242 245 246 249 251
300 303 300 294 295 293 286 282 278 274 270 268 268 268 263 256 251 250 247 247 248 245 239 255 250 240 252 232 233 235 228 227 231 231 231 235 236 241 246 244 248 251 254
301 296 292 292 290 288 289 284 277 271 266 262 261 262 264 262 260 252 246 244 243 239 238 237 238 246 239 242 237 228 227 230 230 231 234 234 237 241 242 246 247 250 252
299 298 293 289 291 292 288 280 273 267 263 261 258 257 259 262 261 256 250 242 238 235 233 235 234 236 235 250 263 248 236 235 235 233 235 237 238 240 243 244 248 252 256
302 299 295 293 297 302 289 285 280 272 266 261 253 252 248 251 255 253 248 243 238 230 226 226 227 235 241 241 254 256 253 238 233 235 235 239 241 240 240 243 247 250 253
303 303 298 296 299 297 286 292 280 269 265 261 258 239 240 238 244 249 245 237 234 230 217 213 227 227 227 223 230 236 245 241 247 244 240 238 238 242 244 245 246 250 251
305 300 294 296 302 293 295 292 276 268 267 261 256 240 232 233 234 240 239 235 231 227 224 205 207 214 221 225 234 232 233 243 241 255 253 240 238 235 235 239 242 244 248